Stations météo

réclame
Mon MeteoGroup
Vaestmarkum, Suède (2260): Température de l'air & dewpoint: 08.08.2018 15:00:00 - 14.08.2018 15:00:00 (CEST)Vaestmarkum, Suède (2260): Vitesse du vent & gusts: 08.08.2018 15:00:00 - 14.08.2018 15:00:00 (CEST)Vaestmarkum, Suède (2260): Direction du vent: 08.08.2018 15:00:00 - 14.08.2018 15:00:00 (CEST)Vaestmarkum, Suède (2260): reduced air pressure: 08.08.2018 15:00:00 - 14.08.2018 15:00:00 (CEST)Vaestmarkum, Suède (2260): visibility: 08.08.2018 15:00:00 - 14.08.2018 15:00:00 (CEST)Vaestmarkum, Suède (2260): Quantités de précipitations: 08.08.2018 15:00:00 - 14.08.2018 15:00:00 (CEST)
Date & Time tt [°C] td [°C] ff [km/h] ff [knt] fx [km/h] fx [knt] dd ppp [hPa] vv [km] rr [mm]
14.08.2018 15:00:00 15,6 7,1 6 4 17 9 SSE 1009,8 42 0,0
14.08.2018 14:00:00 16,4 5,7 4 2 9 5 W 1009,7 40 0,0
14.08.2018 13:00:00 15,6 6,3 2 1 13 7 N 1009,7 50 0,0
14.08.2018 12:00:00 15,2 6,0 4 2 14 7 N 1009,8 48 0,0
14.08.2018 11:00:00 14,7 6,0 7 4 16 8 NNW 1009,9 44 0,0
14.08.2018 10:00:00 15,1 6,1 4 2 17 9 N 1009,8 40 0,0
14.08.2018 09:00:00 13,3 6,4 7 4 13 7 W 1009,8 50 0,0
14.08.2018 08:00:00 12,0 7,7 3 2 11 6 WNW 1009,6 50 0,0
14.08.2018 07:00:00 10,2 7,6 2 1 9 5 N 1009,6 46 0,0
14.08.2018 06:00:00 8,6 8,3 3 2 9 5 NW 1009,6 50 0,0
14.08.2018 05:00:00 6,3 6,3 4 2 6 3 WNW 1009,5 50 0,0
14.08.2018 04:00:00 5,3 5,3 0 0 9 5 N 1009,4 50 0,0
14.08.2018 03:00:00 4,5 4,5 6 4 9 5 W 1009,3 50 0,0
14.08.2018 02:00:00 5,7 5,7 0 0 6 3 N 1008,9 49 0,0
14.08.2018 01:00:00 7,9 5,9 3 2 13 7 ENE 1008,8 50 0,0
14.08.2018 00:00:00 8,8 6,2 3 2 15 8 NW 1008,4 50 0,0
13.08.2018 23:00:00 11,2 6,3 7 4 13 7 WNW 1008,1 50 0,0
13.08.2018 22:00:00 11,1 8,1 3 2 10 5 W 1007,9 50 0,0
13.08.2018 21:00:00 11,3 8,0 4 2 20 11 W 1007,4 50 0,0
13.08.2018 20:00:00 15,4 6,4 6 4 17 9 W 1006,5 46 0,0
13.08.2018 19:00:00 15,8 7,3 4 2 18 10 NW 1006,3 45 0,0
13.08.2018 18:00:00 15,7 6,1 9 5 25 14 WNW 1006,3 50 0,0
13.08.2018 17:00:00 16,8 6,3 11 6 26 14 WNW 1006,4 44 0,0
13.08.2018 16:00:00 15,9 7,2 13 7 31 17 WNW 1006,3 46 0,0
13.08.2018 15:00:00 16,2 7,1 11 6 31 17 NW 1005,6 50 0,0
13.08.2018 14:00:00 17,7 8,5 10 6 35 19 NNW 1005,3 42 0,0
13.08.2018 13:00:00 16,8 8,0 13 7 30 16 NW 1004,9 38 0,0
13.08.2018 12:00:00 15,8 8,0 11 6 31 17 NW 1004,7 37 0,0
13.08.2018 11:00:00 14,8 8,5 11 6 37 20 NW 1004,6 47 0,0
13.08.2018 10:00:00 13,8 7,8 13 7 34 19 NW 1003,9 48 0,0
13.08.2018 09:00:00 13,4 7,0 14 7 38 20 NW 1003,4 43 0,0
13.08.2018 08:00:00 12,6 7,1 16 9 38 20 WNW 1003,1 40 0,0
13.08.2018 07:00:00 11,5 7,2 12 6 23 13 WNW 1003,1 50 0,0
13.08.2018 06:00:00 10,4 6,7 10 5 22 12 WNW 1003,0 50 0,0
13.08.2018 05:00:00 9,6 6,5 8 5 28 15 WNW 1003,1 50 0,0
13.08.2018 04:00:00 10,4 6,7 12 7 31 17 WNW 1003,1 50 0,0
13.08.2018 03:00:00 10,7 7,0 14 8 29 16 WNW 1002,9 50 0,0
13.08.2018 02:00:00 10,7 7,0 10 5 31 17 WNW 1003,1 50 0,0
13.08.2018 01:00:00 11,1 6,8 13 7 25 13 WNW 1003,0 50 0,0
13.08.2018 00:00:00 11,0 6,7 10 5 23 13 WNW 1003,2 50 0,0
12.08.2018 23:00:00 11,3 7,0 9 5 22 12 NW 1003,1 50 0,0
12.08.2018 22:00:00 11,7 7,0 7 4 20 11 WNW 1003,0 50 0,0
12.08.2018 21:00:00 13,0 7,2 10 5 31 17 NW 1003,0 50 0,0
12.08.2018 20:00:00 14,8 6,6 12 7 35 19 NW 1002,8 43 0,0
12.08.2018 19:00:00 16,4 5,7 12 6 33 18 WNW 1002,9 37 0,0
12.08.2018 18:00:00 17,1 5,7 15 8 33 18 WNW 1003,0 40 0,0
12.08.2018 17:00:00 17,1 4,7 20 11 41 22 WNW 1003,3 40 0,0
12.08.2018 16:00:00 18,0 5,2 15 8 37 20 WNW 1003,3 45 0,0
12.08.2018 15:00:00 17,1 6,0 14 7 32 17 WNW 1003,7 38 0,0
12.08.2018 14:00:00 17,4 6,3 13 7 33 18 NW 1004,0 41 0,0
12.08.2018 13:00:00 16,5 6,0 14 8 27 15 WNW 1004,4 39 0,0
12.08.2018 12:00:00 15,6 7,4 11 6 31 17 WNW 1004,9 48 0,0
12.08.2018 11:00:00 15,7 5,9 12 7 28 15 WNW 1005,2 39 0,0
12.08.2018 10:00:00 14,6 6,2 8 5 24 13 NW 1005,6 46 0,0
12.08.2018 09:00:00 13,6 7,8 7 4 16 9 WNW 1006,2 44 0,0
12.08.2018 08:00:00 12,5 7,2 6 4 17 9 WNW 1006,9 40 0,0
12.08.2018 07:00:00 10,3 8,7 6 4 13 7 NW 1007,3 49 0,0
12.08.2018 06:00:00 7,0 7,0 3 1 8 4 WNW 1008,1 45 0,0
12.08.2018 05:00:00 6,0 6,0 0 0 4 2 N 1008,4 32 0,0
12.08.2018 04:00:00 4,9 4,9 0 0 3 2 N 1008,9 29 0,0
12.08.2018 03:00:00 3,8 3,8 0 0 4 2 N 1009,6 30 0,0
12.08.2018 02:00:00 4,4 4,4 0 0 4 2 N 1010,0 24 0,0
12.08.2018 01:00:00 5,2 5,2 0 0 4 2 N 1010,4 35 0,0
12.08.2018 00:00:00 5,5 5,5 0 0 5 3 N 1010,6 39 0,0
11.08.2018 23:00:00 6,2 6,2 0 0 5 3 N 1010,9 43 0,0
11.08.2018 22:00:00 7,8 7,2 2 1 5 3 NW 1010,9 50 0,0
11.08.2018 21:00:00 10,4 8,2 3 2 6 4 NW 1010,6 50 0,0
11.08.2018 20:00:00 16,7 5,9 5 3 20 11 W 1010,1 49 0,0
11.08.2018 19:00:00 17,9 6,7 7 4 30 16 WNW 1010,1 45 0,0
11.08.2018 18:00:00 18,3 5,5 16 8 32 17 W 1010,0 44 0,0
11.08.2018 17:00:00 18,4 5,9 14 8 36 20 W 1009,9 41 0,0
11.08.2018 16:00:00 19,0 6,1 18 10 39 21 W 1009,7 41 0,0
11.08.2018 15:00:00 17,9 6,4 17 9 36 20 W 1009,8 46 0,0
11.08.2018 14:00:00 19,2 7,6 13 7 41 22 W 1009,2 38 0,0
11.08.2018 13:00:00 18,7 7,2 17 9 49 27 W 1008,4 43 0,0
11.08.2018 12:00:00 18,2 7,3 19 11 50 27 W 1007,4 40 0,0
11.08.2018 11:00:00 17,5 7,0 22 12 49 26 W 1006,9 43 0,0
11.08.2018 10:00:00 17,5 8,1 22 12 47 25 W 1005,6 38 0,0
11.08.2018 09:00:00 16,4 8,9 17 9 45 24 W 1004,6 42 0,0
11.08.2018 08:00:00 15,6 9,3 13 7 39 21 W 1003,0 45 0,0
11.08.2018 07:00:00 14,7 9,7 13 7 36 20 SW 1002,0 50 0,0
11.08.2018 06:00:00 14,4 7,4 11 6 34 18 SSW 1000,9 50 0,0
11.08.2018 05:00:00 14,1 8,7 8 5 24 13 S 1001,1 50 0,0
11.08.2018 04:00:00 14,6 8,8 8 4 31 17 S 1001,2 47 0,0
11.08.2018 03:00:00 14,8 9,4 10 5 24 13 S 1001,6 48 0,0
11.08.2018 02:00:00 14,6 9,6 9 5 19 10 S 1001,9 43 0,0
11.08.2018 01:00:00 15,6 9,5 11 6 28 15 SSW 1002,2 40 0,0
11.08.2018 00:00:00 16,2 10,5 10 5 23 12 S 1002,4 50 0,0
10.08.2018 23:00:00 16,7 11,4 5 3 22 12 S 1002,4 50 0,0
10.08.2018 22:00:00 18,0 14,3 6 3 17 9 SSW 1002,1 46 0,0
10.08.2018 21:00:00 18,7 18,7 4 2 21 12 S 1001,5 13 0,0
10.08.2018 20:00:00 19,8 19,8 9 5 22 12 SSE 1002,0 10 0,0
10.08.2018 19:00:00 19,9 19,9 4 2 21 12 SE 1002,5 6 0,0
10.08.2018 18:00:00 20,0 20,0 10 5 20 11 S 1003,0 8 0,0
10.08.2018 17:00:00 20,1 20,1 7 4 18 10 SSE 1003,5 10 0,0
10.08.2018 16:00:00 19,1 19,1 8 4 27 15 SE 1004,2 7 0,0
10.08.2018 15:00:00 18,8 18,8 9 5 30 16 ESE 1005,2 9 0,0
10.08.2018 14:00:00 18,9 18,9 7 4 27 15 ESE 1006,0 7 0,6
10.08.2018 13:00:00 18,5 18,5 8 4 22 12 E 1007,2 11 0,0
10.08.2018 12:00:00 20,5 17,3 7 4 17 9 E 1008,2 33 0,0
10.08.2018 11:00:00 19,0 17,0 6 4 12 6 ENE 1009,1 35 0,0
10.08.2018 10:00:00 19,2 17,2 5 3 13 7 E 1009,6 27 0,0
10.08.2018 09:00:00 19,5 18,0 5 3 11 6 ENE 1010,1 25 0,0
10.08.2018 08:00:00 18,3 18,3 5 3 9 5 E 1010,3 16 0,0
10.08.2018 07:00:00 16,9 16,9 3 1 9 5 SE 1011,0 1,5 0,0
10.08.2018 06:00:00 16,3 16,3 2 1 9 5 NW 1011,2 0,9 0,0
10.08.2018 05:00:00 13,5 13,5 4 2 7 4 WNW 1011,5 3,3 0,0
10.08.2018 04:00:00 11,3 11,3 2 1 5 3 WNW 1012,0 2,8 0,0
10.08.2018 03:00:00 11,5 11,5 3 2 6 4 NW 1012,0 1,6 0,0
10.08.2018 02:00:00 12,0 12,0 2 1 4 2 WNW 1012,8 1,2 0,0
10.08.2018 01:00:00 12,8 12,8 3 2 5 3 NW 1012,2 3,5 0,0
10.08.2018 00:00:00 13,3 13,3 2 1 4 2 WNW 1011,9 1,7 0,0
09.08.2018 23:00:00 14,6 14,6 0 0 4 2 N 1011,8 2,6 0,0
09.08.2018 22:00:00 16,0 16,0 2 1 4 2 WNW 1011,7 6 0,0
09.08.2018 21:00:00 18,2 18,0 2 1 4 2 WNW 1011,5 13 0,0
09.08.2018 20:00:00 20,2 17,6 2 1 10 5 SSW 1011,1 28 0,0
09.08.2018 19:00:00 23,7 17,4 5 3 14 8 SE 1010,6 28 0,0
09.08.2018 18:00:00 24,9 17,9 4 2 17 9 SE 1010,3 26 0,0
09.08.2018 17:00:00 25,4 17,6 9 5 21 11 SSE 1010,2 29 0,0
09.08.2018 16:00:00 24,5 17,5 7 4 18 10 SSE 1010,0 33 0,0
09.08.2018 15:00:00 26,6 15,9 8 5 18 10 W 1009,9 30 0,0
09.08.2018 14:00:00 25,5 15,8 8 4 18 10 W 1009,5 34 0,0
09.08.2018 13:00:00 25,2 16,6 7 4 15 8 SW 1009,2 38 0,0
09.08.2018 12:00:00 25,0 15,9 7 4 24 13 WNW 1008,8 34 0,0
09.08.2018 11:00:00 22,6 16,2 10 5 24 13 WSW 1008,7 38 0,0
09.08.2018 10:00:00 22,4 18,8 8 4 16 9 SW 1008,3 25 0,0
09.08.2018 09:00:00 19,9 19,2 5 3 11 6 S 1007,9 26 0,0
09.08.2018 08:00:00 20,9 19,7 5 3 12 7 S 1007,6 30 0,0
09.08.2018 07:00:00 19,1 19,1 5 3 9 5 SSE 1007,4 18 0,0
09.08.2018 06:00:00 17,9 17,9 4 2 13 7 SSE 1007,2 18 0,0
09.08.2018 05:00:00 17,3 17,3 4 2 10 5 SE 1007,2 7 0,0
09.08.2018 04:00:00 16,1 16,1 0 0 4 2 N 1006,5 1,3 0,1
09.08.2018 03:00:00 16,1 16,1 0 0 4 2 N 1006,9 1,3 0,2
09.08.2018 02:00:00 15,7 15,7 0 0 5 3 N 1007,5 0,9 0,1
09.08.2018 01:00:00 15,3 15,3 0 0 5 3 N 1007,7 0,6 0,0
09.08.2018 00:00:00 17,1 17,1 0 0 4 2 N 1008,0 2,1 0,0
08.08.2018 23:00:00 18,0 18,0 3 2 15 8 ENE 1007,7 3,6 1,5
08.08.2018 22:00:00 18,1 18,1 3 1 4 2 SE 1009,5 8 0,4
08.08.2018 21:00:00 18,5 18,5 0 0 8 4 N 1009,2 12 0,0
08.08.2018 20:00:00 18,9 18,9 0 0 13 7 N 1009,2 10 0,3
08.08.2018 19:00:00 19,7 18,7 5 3 14 7 SE 1009,9 24 0,0
08.08.2018 18:00:00 20,2 18,1 8 4 22 12 SE 1009,9 28 0,0
08.08.2018 17:00:00 21,6 17,6 12 7 31 17 SE 1010,3 29 0,0
08.08.2018 16:00:00 23,6 15,6 11 6 31 17 SSE 1010,4 33 0,0
08.08.2018 15:00:00 23,6 15,4 15 8 30 16 SE 1010,6 37 0,0

tt = Température de l'air
td = dewpoint
ff = Vitesse du vent
fx = gusts
dd = Direction du vent
ppp = reduced air pressure
vv = visibility
rr = Quantités de précipitations

stations d'obs. à proximité